Total_Precipitation_Accumulation
0.00 0.01 0.09 0.17 0.27 0.53 0.68 0.43 0.28 0.19 0.22 0.34 0.33 0.25 0.24 0.28 0.28 0.33 0.12 0.03 0.02 0.02 0.02 0.03 0.05 0.04 0.05 0.05 0.06 0.07 0.07 0.07 0.06 0.06 0.05 0.04 0.03 0.03 0.02 0.02 0.02 0.02 0.02 0.03 0.03 0.03 0.02 0.02 0.02
0.00 0.02 0.10 0.19 0.38 0.93 0.75 0.34 0.18 0.16 0.27 0.36 0.28 0.19 0.19 0.18 0.19 0.12 0.07 0.05 0.03 0.02 0.01 0.01 0.05 0.05 0.04 0.05 0.05 0.07 0.08 0.08 0.08 0.07 0.06 0.05 0.04 0.04 0.03 0.03 0.03 0.03 0.03 0.03 0.02 0.03 0.02 0.02 0.01
0.00 0.02 0.10 0.19 0.39 0.76 0.42 0.18 0.13 0.16 0.31 0.36 0.27 0.22 0.21 0.19 0.20 0.15 0.06 0.06 0.05 0.03 0.02 0.03 0.04 0.04 0.04 0.04 0.05 0.07 0.08 0.09 0.09 0.08 0.06 0.06 0.06 0.06 0.05 0.04 0.03 0.03 0.03 0.03 0.03 0.02 0.02 0.02 0.02
0.01 0.03 0.08 0.17 0.35 0.44 0.23 0.13 0.11 0.16 0.30 0.28 0.24 0.27 0.25 0.21 0.14 0.13 0.08 0.06 0.05 0.04 0.04 0.04 0.05 0.04 0.04 0.05 0.05 0.06 0.07 0.09 0.09 0.08 0.07 0.06 0.07 0.06 0.06 0.04 0.04 0.04 0.04 0.04 0.04 0.03 0.02 0.02 0.02
0.01 0.04 0.09 0.16 0.25 0.25 0.18 0.14 0.14 0.14 0.17 0.25 0.28 0.33 0.24 0.18 0.16 0.22 0.22 0.13 0.06 0.06 0.07 0.07 0.07 0.06 0.06 0.06 0.06 0.06 0.07 0.08 0.08 0.07 0.07 0.07 0.07 0.06 0.06 0.05 0.05 0.05 0.05 0.05 0.06 0.05 0.04 0.03 0.02
0.01 0.03 0.06 0.08 0.11 0.12 0.14 0.13 0.12 0.14 0.18 0.28 0.35 0.33 0.26 0.21 0.23 0.37 0.32 0.20 0.13 0.11 0.13 0.13 0.12 0.11 0.09 0.08 0.07 0.08 0.08 0.09 0.10 0.10 0.09 0.09 0.08 0.08 0.07 0.07 0.07 0.08 0.08 0.07 0.07 0.07 0.06 0.05 0.04
0.00 0.01 0.02 0.03 0.05 0.10 0.10 0.08 0.11 0.14 0.26 0.33 0.38 0.42 0.38 0.40 0.36 0.35 0.34 0.31 0.23 0.28 0.39 0.31 0.18 0.15 0.15 0.13 0.13 0.11 0.12 0.13 0.13 0.13 0.12 0.12 0.12 0.12 0.11 0.12 0.14 0.15 0.16 0.15 0.11 0.09 0.10 0.10 0.08
0.00 0.00 0.00 0.01 0.01 0.04 0.04 0.05 0.10 0.15 0.23 0.36 0.46 0.55 0.65 0.63 0.51 0.39 0.38 0.40 0.29 0.30 0.39 0.39 0.24 0.19 0.16 0.14 0.15 0.16 0.17 0.17 0.16 0.15 0.15 0.14 0.14 0.16 0.18 0.20 0.25 0.28 0.32 0.32 0.25 0.20 0.19 0.19 0.18
0.00 0.00 0.00 0.00 0.01 0.01 0.01 0.03 0.07 0.14 0.22 0.29 0.47 0.62 0.54 0.48 0.61 0.51 0.42 0.47 0.46 0.38 0.42 0.42 0.26 0.20 0.18 0.18 0.19 0.22 0.22 0.22 0.21 0.23 0.22 0.23 0.24 0.33 0.47 0.45 0.57 0.54 0.57 0.56 0.51 0.47 0.46 0.48 0.36
0.00 0.00 0.00 0.00 0.00 0.00 0.01 0.02 0.08 0.23 0.37 0.55 0.75 0.75 0.57 0.53 0.76 0.77 0.64 0.74 0.71 0.54 0.57 0.48 0.32 0.26 0.26 0.23 0.27 0.30 0.32 0.45 0.42 0.52 0.60 0.63 0.71 0.66 0.56 0.75 1.00 1.07 1.08 1.02 0.99 1.07 0.99 0.82 0.63
0.00 0.00 0.00 0.00 0.00 0.00 0.01 0.02 0.06 0.17 0.56 0.96 1.15 1.08 0.87 0.70 0.89 1.00 0.88 1.18 0.98 0.62 0.46 0.45 0.38 0.35 0.32 0.34 0.37 0.45 0.56 0.86 0.76 0.71 0.84 1.03 0.97 0.77 0.68 0.82 1.11 1.39 1.43 1.29 1.45 1.64 1.28 1.21 1.25
0.00 0.00 0.00 0.00 0.00 0.00 0.01 0.03 0.11 0.21 0.58 0.81 0.99 1.13 1.11 1.03 1.04 1.04 0.99 0.96 1.01 0.91 0.78 0.64 0.62 0.58 0.64 0.68 0.63 0.59 0.68 0.85 0.83 0.90 0.86 1.13 1.17 1.02 0.94 1.04 1.18 1.42 1.62 1.89 1.91 2.03 1.95 1.85 1.69
0.00 0.00 0.00 0.00 0.00 0.01 0.01 0.06 0.15 0.26 0.51 0.54 0.63 0.77 0.96 1.15 1.36 1.39 1.33 1.27 1.20 1.17 1.08 1.05 1.04 1.05 1.12 1.05 0.98 0.83 0.85 0.87 0.91 1.06 1.10 1.23 1.42 1.43 1.47 1.46 1.41 1.40 1.75 2.15 2.31 2.12 2.34 2.38 2.06
0.00 0.00 0.00 0.00 0.01 0.01 0.02 0.07 0.17 0.31 0.45 0.51 0.56 0.72 0.95 1.20 1.32 1.50 1.49 1.49 1.37 1.31 1.36 1.57 1.64 1.68 1.70 1.69 1.59 1.40 1.30 1.32 1.31 1.38 1.56 1.70 1.81 1.97 1.99 1.88 1.76 1.59 1.67 1.94 2.14 2.16 2.38 2.25 2.15
0.00 0.01 0.04 0.04 0.03 0.04 0.08 0.17 0.33 0.46 0.51 0.67 0.76 0.97 1.08 1.32 1.49 1.46 1.39 1.42 1.46 1.51 1.81 2.13 2.30 2.44 2.46 2.43 2.25 1.98 1.82 1.91 2.06 2.08 2.17 2.18 2.23 2.42 2.33 2.06 1.80 1.72 1.80 1.90 1.91 1.93 2.03 1.87 1.79
0.00 0.02 0.09 0.08 0.05 0.06 0.11 0.36 0.50 0.55 0.66 0.84 0.88 1.08 1.30 1.27 1.44 1.45 1.38 1.51 1.78 2.02 2.43 2.74 2.89 3.11 3.20 3.12 2.83 2.45 2.25 2.25 2.33 2.39 2.36 2.36 2.37 2.33 2.26 1.93 1.62 1.71 1.82 1.81 1.78 1.68 1.76 1.72 1.72
0.02 0.05 0.10 0.16 0.08 0.10 0.17 0.46 0.57 0.59 0.77 0.91 1.07 1.04 1.11 1.23 1.49 1.62 1.62 1.69 2.00 2.35 2.87 3.36 3.77 4.00 4.05 3.66 3.02 2.63 2.55 2.52 2.48 2.50 2.37 2.25 2.14 2.08 2.16 1.84 1.68 1.74 1.68 1.58 1.51 1.66 1.82 1.74 1.72
0.02 0.03 0.10 0.19 0.13 0.12 0.24 0.45 0.64 0.72 0.85 1.02 1.06 0.99 0.97 1.07 1.26 1.49 1.65 1.84 2.11 2.41 2.97 3.63 4.22 4.37 4.12 3.46 2.90 2.76 2.64 2.43 2.26 2.04 1.85 1.70 1.71 1.70 1.79 1.59 1.54 1.64 1.59 1.45 1.52 1.67 1.77 1.56 1.62
0.02 0.04 0.12 0.18 0.11 0.13 0.26 0.43 0.65 0.79 0.91 0.97 1.15 1.07 1.09 1.17 1.30 1.57 1.76 1.99 2.33 2.66 3.10 3.61 4.03 3.98 3.67 3.27 2.85 2.58 2.22 1.98 1.75 1.48 1.29 1.20 1.17 1.23 1.39 1.25 1.34 1.41 1.34 1.27 1.28 1.37 1.40 1.22 1.46
0.04 0.07 0.16 0.18 0.11 0.13 0.28 0.48 0.72 0.76 0.74 0.77 0.97 1.03 1.02 1.06 1.20 1.43 1.74 1.92 2.18 2.54 2.80 2.99 2.83 2.52 2.33 2.21 2.05 1.76 1.70 1.67 1.61 1.50 1.30 1.11 1.11 1.10 1.05 1.04 1.05 1.11 1.15 1.05 1.02 1.15 1.12 0.96 1.22
0.06 0.07 0.12 0.18 0.20 0.21 0.31 0.61 0.80 0.78 0.69 0.65 0.68 0.77 0.81 0.88 1.02 1.26 1.63 1.77 1.74 1.97 2.09 1.95 1.60 1.28 1.20 1.18 1.10 1.22 1.39 1.50 1.54 1.57 1.48 1.31 1.25 1.22 1.16 1.07 0.99 0.95 0.98 0.98 0.96 1.04 1.04 0.92 0.97
0.08 0.06 0.07 0.09 0.18 0.39 0.43 0.76 0.95 0.94 0.91 0.73 0.65 0.72 0.72 0.73 0.75 0.99 1.24 1.24 1.25 1.27 1.16 1.05 0.90 0.72 0.64 0.62 0.66 0.74 0.93 1.22 1.42 1.59 1.64 1.64 1.54 1.39 1.27 1.15 0.97 0.84 0.81 0.85 0.79 0.85 0.97 0.98 0.87
0.05 0.04 0.06 0.09 0.14 0.26 0.34 0.57 0.92 1.05 1.18 0.81 0.62 0.63 0.58 0.62 0.73 0.85 0.83 0.76 0.75 0.71 0.63 0.56 0.56 0.53 0.52 0.52 0.61 0.64 0.60 0.66 0.67 0.75 0.89 1.04 1.16 1.12 0.98 0.92 0.86 0.76 0.69 0.69 0.72 0.83 0.92 0.95 0.87
0.06 0.09 0.15 0.23 0.31 0.45 0.43 0.50 0.78 0.89 0.92 0.61 0.51 0.60 0.51 0.46 0.52 0.58 0.55 0.49 0.46 0.44 0.41 0.44 0.50 0.58 0.56 0.57 0.60 0.60 0.58 0.63 0.61 0.62 0.66 0.64 0.68 0.70 0.67 0.66 0.69 0.68 0.66 0.66 0.67 0.73 0.82 0.90 0.95
0.07 0.14 0.42 0.71 0.93 0.91 0.51 0.51 0.68 0.60 0.59 0.59 0.51 0.51 0.48 0.38 0.36 0.31 0.30 0.28 0.27 0.26 0.23 0.24 0.32 0.41 0.41 0.43 0.47 0.51 0.57 0.60 0.55 0.50 0.48 0.46 0.46 0.49 0.52 0.56 0.61 0.62 0.67 0.72 0.79 0.79 0.80 0.88 0.99
0.07 0.11 0.28 0.45 0.57 0.64 0.47 0.71 0.74 0.54 0.51 0.45 0.35 0.30 0.33 0.24 0.20 0.16 0.14 0.13 0.16 0.17 0.15 0.14 0.15 0.20 0.25 0.30 0.38 0.51 0.68 0.73 0.69 0.67 0.54 0.50 0.49 0.48 0.51 0.59 0.65 0.65 0.67 0.67 0.77 0.82 0.89 0.96 1.00
0.08 0.07 0.09 0.14 0.26 0.44 0.56 0.69 0.60 0.43 0.45 0.36 0.24 0.17 0.16 0.13 0.09 0.08 0.09 0.08 0.08 0.09 0.09 0.09 0.10 0.13 0.20 0.26 0.33 0.38 0.43 0.50 0.51 0.53 0.52 0.49 0.56 0.51 0.56 0.64 0.72 0.75 0.76 0.79 0.83 0.84 0.94 1.12 1.20
0.08 0.07 0.07 0.09 0.18 0.28 0.47 0.69 0.64 0.49 0.47 0.37 0.24 0.14 0.09 0.07 0.05 0.04 0.04 0.04 0.04 0.06 0.08 0.10 0.09 0.15 0.29 0.41 0.46 0.37 0.29 0.28 0.35 0.43 0.50 0.52 0.56 0.56 0.60 0.65 0.68 0.73 0.75 0.79 0.84 0.89 1.00 1.16 1.23
0.11 0.09 0.08 0.09 0.10 0.18 0.35 0.46 0.36 0.31 0.28 0.25 0.18 0.12 0.10 0.07 0.04 0.02 0.02 0.02 0.05 0.07 0.10 0.20 0.25 0.32 0.44 0.59 0.67 0.56 0.39 0.31 0.33 0.36 0.36 0.38 0.47 0.56 0.63 0.60 0.54 0.51 0.57 0.70 0.85 0.92 1.01 1.09 1.13
0.11 0.10 0.10 0.12 0.11 0.12 0.17 0.27 0.17 0.14 0.12 0.10 0.08 0.06 0.04 0.02 0.01 0.01 0.01 0.01 0.03 0.06 0.15 0.38 0.63 0.89 0.96 1.03 1.11 0.97 0.59 0.37 0.30 0.25 0.24 0.30 0.43 0.53 0.59 0.56 0.51 0.49 0.56 0.69 0.84 0.99 1.20 1.33 1.29